TimePST,TemperatureF,Dew PointF,Humidity,Sea Level PressureIn,VisibilityMPH,Wind Direction,Wind SpeedMPH,Gust SpeedMPH,PrecipitationIn,Events,Conditions,WindDirDegrees,DateUTC
12:51 AM,48.9,41.0,74,30.27,10.0,North,3.5,-,N/A,,Clear,360,2013-02-13 08:51:00
1:51 AM,48.0,37.9,68,30.26,10.0,Calm,Calm,-,N/A,,Clear,0,2013-02-13 09:51:00
2:51 AM,46.9,37.0,68,30.25,10.0,Calm,Calm,-,N/A,,Clear,0,2013-02-13 10:51:00
3:51 AM,46.0,36.0,68,30.25,10.0,Calm,Calm,-,N/A,,Clear,0,2013-02-13 11:51:00
4:51 AM,46.9,33.1,59,30.25,10.0,Calm,Calm,-,N/A,,Clear,0,2013-02-13 12:51:00
5:51 AM,46.0,32.0,58,30.25,10.0,Calm,Calm,-,N/A,,Clear,0,2013-02-13 13:51:00
6:51 AM,45.0,32.0,60,30.27,10.0,Calm,Calm,-,N/A,,Clear,0,2013-02-13 14:51:00
7:51 AM,50.0,32.0,50,30.27,10.0,North,3.5,-,N/A,,Clear,360,2013-02-13 15:51:00
8:51 AM,53.1,32.0,45,30.28,10.0,Calm,Calm,-,N/A,,Clear,0,2013-02-13 16:51:00
9:51 AM,57.0,34.0,42,30.27,10.0,Variable,3.5,-,N/A,,Clear,0,2013-02-13 17:51:00
10:51 AM,60.1,34.0,38,30.26,10.0,WNW,4.6,-,N/A,,Clear,290,2013-02-13 18:51:00
11:51 AM,61.0,37.0,41,30.24,10.0,NW,10.4,-,N/A,,Clear,320,2013-02-13 19:51:00
12:51 PM,61.0,42.1,50,30.21,10.0,NW,9.2,-,N/A,,Clear,310,2013-02-13 20:51:00
1:51 PM,60.1,45.0,57,30.19,10.0,NW,8.1,-,N/A,,Clear,310,2013-02-13 21:51:00
2:36 PM,60.8,46.4,59,30.18,10.0,WNW,10.4,-,N/A,,Partly Cloudy,300,2013-02-13 22:36:00
2:51 PM,60.1,46.0,60,30.17,10.0,WNW,10.4,-,N/A,,Partly Cloudy,300,2013-02-13 22:51:00
3:51 PM,60.1,46.9,62,30.17,10.0,NW,8.1,-,N/A,,Partly Cloudy,320,2013-02-13 23:51:00
4:51 PM,59.0,48.9,69,30.16,10.0,WNW,9.2,-,N/A,,Partly Cloudy,290,2013-02-14 00:51:00
5:51 PM,57.0,50.0,77,30.17,10.0,NW,5.8,-,N/A,,Partly Cloudy,310,2013-02-14 01:51:00
6:51 PM,57.0,48.9,74,30.18,10.0,North,4.6,-,N/A,,Scattered Clouds,360,2013-02-14 02:51:00
7:51 PM,55.9,48.9,77,30.19,10.0,Calm,Calm,-,N/A,,Partly Cloudy,0,2013-02-14 03:51:00
8:51 PM,55.0,48.9,80,30.18,10.0,North,3.5,-,N/A,,Partly Cloudy,350,2013-02-14 04:51:00
9:51 PM,54.0,48.0,80,30.18,9.0,Calm,Calm,-,N/A,,Clear,0,2013-02-14 05:51:00
10:51 PM,53.1,46.9,80,30.19,8.0,Calm,Calm,-,N/A,,Partly Cloudy,0,2013-02-14 06:51:00
11:51 PM,52.0,46.9,83,30.19,7.0,Calm,Calm,-,N/A,,Clear,0,2013-02-14 07:51:00